KOREASAT 5A

Last updated on Sat Aug 15 2026 00:03:01 GMT+0000 (Coordinated Universal Time)

1 42984U 17067A 26226.57893403 -.00000373 00000+0 00000+0 0 9997 2 42984 0.0058 293.0512 0000427 208.7694 142.7219 1.00269318 32116
UTC large
Height (km)
Speed (km/s)
/
Latitude / Longitude
Inclination (degrees)
Orbital Period (minutes)
Azimuth
Elevation
Range (km)
Doppler Factor

Next 0 passes for location: London (51.5072 / 0.1276)

No passes found over London.
KOREASAT 5A